#datetime,building,power
2023-02-03T00:00:00,pst,15.09
2023-02-03T00:01:00,pst,15.22
2023-02-03T00:02:00,pst,15.34
2023-02-03T00:03:00,pst,15.24
2023-02-03T00:04:00,pst,15.16
2023-02-03T00:05:00,pst,14.60
2023-02-03T00:06:00,pst,14.53
2023-02-03T00:07:00,pst,14.52
2023-02-03T00:08:00,pst,14.19
2023-02-03T00:09:00,pst,14.20
2023-02-03T00:10:00,pst,14.14
2023-02-03T00:11:00,pst,14.12
2023-02-03T00:12:00,pst,25.13
2023-02-03T00:13:00,pst,14.22
2023-02-03T00:14:00,pst,14.26
2023-02-03T00:15:00,pst,14.38
2023-02-03T00:16:00,pst,14.43
2023-02-03T00:17:00,pst,14.45
2023-02-03T00:18:00,pst,18.78
2023-02-03T00:19:00,pst,18.75
2023-02-03T00:20:00,pst,18.60
2023-02-03T00:21:00,pst,18.66
2023-02-03T00:22:00,pst,18.75
2023-02-03T00:23:00,pst,19.55
2023-02-03T00:24:00,pst,18.82
2023-02-03T00:25:00,pst,19.38
2023-02-03T00:26:00,pst,19.63
2023-02-03T00:27:00,pst,19.67
2023-02-03T00:28:00,pst,19.59
2023-02-03T00:29:00,pst,19.50
2023-02-03T00:30:00,pst,19.57
2023-02-03T00:31:00,pst,18.72
2023-02-03T00:32:00,pst,18.70
2023-02-03T00:33:00,pst,18.78
2023-02-03T00:34:00,pst,18.76
2023-02-03T00:35:00,pst,18.63
2023-02-03T00:36:00,pst,18.55
2023-02-03T00:37:00,pst,18.61
2023-02-03T00:38:00,pst,18.58
2023-02-03T00:39:00,pst,18.59
2023-02-03T00:40:00,pst,18.76
2023-02-03T00:41:00,pst,25.80
2023-02-03T00:42:00,pst,15.51
2023-02-03T00:43:00,pst,19.49
2023-02-03T00:44:00,pst,19.66
2023-02-03T00:45:00,pst,15.72
2023-02-03T00:46:00,pst,15.60
2023-02-03T00:47:00,pst,19.58
2023-02-03T00:48:00,pst,18.88
2023-02-03T00:49:00,pst,14.73
2023-02-03T00:50:00,pst,14.78
2023-02-03T00:51:00,pst,18.79
2023-02-03T00:52:00,pst,18.86
2023-02-03T00:53:00,pst,14.80
2023-02-03T00:54:00,pst,14.78
2023-02-03T00:55:00,pst,18.72
2023-02-03T00:56:00,pst,18.73
2023-02-03T00:57:00,pst,14.67
2023-02-03T00:58:00,pst,15.10
2023-02-03T00:59:00,pst,19.53
2023-02-03T01:00:00,pst,19.53
2023-02-03T01:01:00,pst,15.82
2023-02-03T01:02:00,pst,16.09
2023-02-03T01:03:00,pst,19.84
2023-02-03T01:04:00,pst,15.91
2023-02-03T01:05:00,pst,15.44
2023-02-03T01:06:00,pst,19.51
2023-02-03T01:07:00,pst,28.30
2023-02-03T01:08:00,pst,28.16
2023-02-03T01:09:00,pst,23.95
2023-02-03T01:10:00,pst,23.59
2023-02-03T01:11:00,pst,27.45
2023-02-03T01:12:00,pst,18.93
2023-02-03T01:13:00,pst,14.86
2023-02-03T01:14:00,pst,15.54
2023-02-03T01:15:00,pst,19.74
2023-02-03T01:16:00,pst,19.78
2023-02-03T01:17:00,pst,15.52
2023-02-03T01:18:00,pst,15.19
2023-02-03T01:19:00,pst,15.17
2023-02-03T01:20:00,pst,14.46
2023-02-03T01:21:00,pst,14.53
2023-02-03T01:22:00,pst,14.48
2023-02-03T01:23:00,pst,14.54
2023-02-03T01:24:00,pst,14.52
2023-02-03T01:25:00,pst,14.74
2023-02-03T01:26:00,pst,14.65
2023-02-03T01:27:00,pst,14.57
2023-02-03T01:28:00,pst,14.58
2023-02-03T01:29:00,pst,15.22
2023-02-03T01:30:00,pst,15.33
2023-02-03T01:31:00,pst,15.39
2023-02-03T01:32:00,pst,15.34
2023-02-03T01:33:00,pst,15.53
2023-02-03T01:34:00,pst,15.30
2023-02-03T01:35:00,pst,14.35
2023-02-03T01:36:00,pst,14.43
2023-02-03T01:37:00,pst,14.37
2023-02-03T01:38:00,pst,14.31
2023-02-03T01:39:00,pst,14.07
2023-02-03T01:40:00,pst,14.13
2023-02-03T01:41:00,pst,14.14
2023-02-03T01:42:00,pst,14.07
2023-02-03T01:43:00,pst,14.03
2023-02-03T01:44:00,pst,14.68
2023-02-03T01:45:00,pst,14.71
2023-02-03T01:46:00,pst,14.85
2023-02-03T01:47:00,pst,14.95
2023-02-03T01:48:00,pst,14.80
2023-02-03T01:49:00,pst,15.09
2023-02-03T01:50:00,pst,14.43
2023-02-03T01:51:00,pst,14.63
2023-02-03T01:52:00,pst,14.60
2023-02-03T01:53:00,pst,14.70
2023-02-03T01:54:00,pst,14.62
2023-02-03T01:55:00,pst,14.43
2023-02-03T01:56:00,pst,14.51
2023-02-03T01:57:00,pst,14.52
2023-02-03T01:58:00,pst,15.17
2023-02-03T01:59:00,pst,15.21
2023-02-03T02:00:00,pst,15.28
2023-02-03T02:01:00,pst,15.43
2023-02-03T02:02:00,pst,15.44
2023-02-03T02:03:00,pst,26.99
2023-02-03T02:04:00,pst,14.88
2023-02-03T02:05:00,pst,14.78
2023-02-03T02:06:00,pst,14.41
2023-02-03T02:07:00,pst,14.59
2023-02-03T02:08:00,pst,14.74
2023-02-03T02:09:00,pst,14.59
2023-02-03T02:10:00,pst,14.58
2023-02-03T02:11:00,pst,14.62
2023-02-03T02:12:00,pst,14.54
2023-02-03T02:13:00,pst,15.22
2023-02-03T02:14:00,pst,15.31
2023-02-03T02:15:00,pst,15.34
2023-02-03T02:16:00,pst,15.25
2023-02-03T02:17:00,pst,15.17
2023-02-03T02:18:00,pst,15.32
2023-02-03T02:19:00,pst,14.62
2023-02-03T02:20:00,pst,14.45
2023-02-03T02:21:00,pst,14.38
2023-02-03T02:22:00,pst,14.41
2023-02-03T02:23:00,pst,14.40
2023-02-03T02:24:00,pst,14.41
2023-02-03T02:25:00,pst,14.43
2023-02-03T02:26:00,pst,14.46
2023-02-03T02:27:00,pst,15.12
2023-02-03T02:28:00,pst,15.13
2023-02-03T02:29:00,pst,15.03
2023-02-03T02:30:00,pst,15.15
2023-02-03T02:31:00,pst,15.09
2023-02-03T02:32:00,pst,15.05
2023-02-03T02:33:00,pst,14.56
2023-02-03T02:34:00,pst,14.59
2023-02-03T02:35:00,pst,14.57
2023-02-03T02:36:00,pst,14.53
2023-02-03T02:37:00,pst,14.63
2023-02-03T02:38:00,pst,14.43
2023-02-03T02:39:00,pst,14.47
2023-02-03T02:40:00,pst,14.44
2023-02-03T02:41:00,pst,14.98
2023-02-03T02:42:00,pst,15.12
2023-02-03T02:43:00,pst,15.34
2023-02-03T02:44:00,pst,15.42
2023-02-03T02:45:00,pst,15.39
2023-02-03T02:46:00,pst,15.18
2023-02-03T02:47:00,pst,14.48
2023-02-03T02:48:00,pst,14.31
2023-02-03T02:49:00,pst,14.12
2023-02-03T02:50:00,pst,14.22
2023-02-03T02:51:00,pst,14.12
2023-02-03T02:52:00,pst,14.12
2023-02-03T02:53:00,pst,14.13
2023-02-03T02:54:00,pst,14.12
2023-02-03T02:55:00,pst,14.84
2023-02-03T02:56:00,pst,14.88
2023-02-03T02:57:00,pst,14.88
2023-02-03T02:58:00,pst,14.92
2023-02-03T02:59:00,pst,14.90
2023-02-03T03:00:00,pst,14.98
2023-02-03T03:01:00,pst,14.94
2023-02-03T03:02:00,pst,14.18
2023-02-03T03:03:00,pst,14.52
2023-02-03T03:04:00,pst,14.70
2023-02-03T03:05:00,pst,14.70
2023-02-03T03:06:00,pst,14.78
2023-02-03T03:07:00,pst,14.78
2023-02-03T03:08:00,pst,14.80
2023-02-03T03:09:00,pst,15.26
2023-02-03T03:10:00,pst,15.30
2023-02-03T03:11:00,pst,15.52
2023-02-03T03:12:00,pst,15.50
2023-02-03T03:13:00,pst,15.15
2023-02-03T03:14:00,pst,24.15
2023-02-03T03:15:00,pst,23.19
2023-02-03T03:16:00,pst,22.87
2023-02-03T03:17:00,pst,22.75
2023-02-03T03:18:00,pst,22.52
2023-02-03T03:19:00,pst,14.32
2023-02-03T03:20:00,pst,14.49
2023-02-03T03:21:00,pst,14.55
2023-02-03T03:22:00,pst,14.59
2023-02-03T03:23:00,pst,15.07
2023-02-03T03:24:00,pst,15.16
2023-02-03T03:25:00,pst,15.30
2023-02-03T03:26:00,pst,15.30
2023-02-03T03:27:00,pst,15.30
2023-02-03T03:28:00,pst,15.24
2023-02-03T03:29:00,pst,14.34
2023-02-03T03:30:00,pst,14.46
2023-02-03T03:31:00,pst,14.24
2023-02-03T03:32:00,pst,14.33
2023-02-03T03:33:00,pst,14.31
2023-02-03T03:34:00,pst,14.23
2023-02-03T03:35:00,pst,14.28
2023-02-03T03:36:00,pst,13.99
2023-02-03T03:37:00,pst,14.93
2023-02-03T03:38:00,pst,15.21
2023-02-03T03:39:00,pst,15.21
2023-02-03T03:40:00,pst,15.57
2023-02-03T03:41:00,pst,15.23
2023-02-03T03:42:00,pst,15.27
2023-02-03T03:43:00,pst,14.52
2023-02-03T03:44:00,pst,14.16
2023-02-03T03:45:00,pst,14.19
2023-02-03T03:46:00,pst,14.18
2023-02-03T03:47:00,pst,14.08
2023-02-03T03:48:00,pst,14.12
2023-02-03T03:49:00,pst,14.14
2023-02-03T03:50:00,pst,14.80
2023-02-03T03:51:00,pst,14.74
2023-02-03T03:52:00,pst,14.99
2023-02-03T03:53:00,pst,14.98
2023-02-03T03:54:00,pst,14.94
2023-02-03T03:55:00,pst,15.10
2023-02-03T03:56:00,pst,14.31
2023-02-03T03:57:00,pst,14.30
2023-02-03T03:58:00,pst,14.58
2023-02-03T03:59:00,pst,14.58
2023-02-03T04:00:00,pst,14.57
2023-02-03T04:01:00,pst,14.36
2023-02-03T04:02:00,pst,14.47
2023-02-03T04:03:00,pst,14.89
2023-02-03T04:04:00,pst,15.53
2023-02-03T04:05:00,pst,15.42
2023-02-03T04:06:00,pst,15.67
2023-02-03T04:07:00,pst,15.68
2023-02-03T04:08:00,pst,15.43
2023-02-03T04:09:00,pst,15.41
2023-02-03T04:10:00,pst,14.53
2023-02-03T04:11:00,pst,14.52
2023-02-03T04:12:00,pst,14.21
2023-02-03T04:13:00,pst,14.23
2023-02-03T04:14:00,pst,14.29
2023-02-03T04:15:00,pst,14.34
2023-02-03T04:16:00,pst,15.20
2023-02-03T04:17:00,pst,15.27
2023-02-03T04:18:00,pst,15.22
2023-02-03T04:19:00,pst,15.23
2023-02-03T04:20:00,pst,15.11
2023-02-03T04:21:00,pst,15.28
2023-02-03T04:22:00,pst,15.26
2023-02-03T04:23:00,pst,14.51
2023-02-03T04:24:00,pst,14.53
2023-02-03T04:25:00,pst,14.63
2023-02-03T04:26:00,pst,14.53
2023-02-03T04:27:00,pst,14.32
2023-02-03T04:28:00,pst,14.31
2023-02-03T04:29:00,pst,14.36
2023-02-03T04:30:00,pst,15.09
2023-02-03T04:31:00,pst,14.65
2023-02-03T04:32:00,pst,15.21
2023-02-03T04:33:00,pst,14.65
2023-02-03T04:34:00,pst,14.73
2023-02-03T04:35:00,pst,14.71
2023-02-03T04:36:00,pst,13.91
2023-02-03T04:37:00,pst,13.88
2023-02-03T04:38:00,pst,13.83
2023-02-03T04:39:00,pst,13.87
2023-02-03T04:40:00,pst,13.84
2023-02-03T04:41:00,pst,13.86
2023-02-03T04:42:00,pst,14.56
2023-02-03T04:43:00,pst,14.68
2023-02-03T04:44:00,pst,14.88
2023-02-03T04:45:00,pst,15.18
2023-02-03T04:46:00,pst,15.08
2023-02-03T04:47:00,pst,15.08
2023-02-03T04:48:00,pst,14.46
2023-02-03T04:49:00,pst,14.50
2023-02-03T04:50:00,pst,14.56
2023-02-03T04:51:00,pst,14.30
2023-02-03T04:52:00,pst,14.30
2023-02-03T04:53:00,pst,14.30
2023-02-03T04:54:00,pst,14.22
2023-02-03T04:55:00,pst,15.10
2023-02-03T04:56:00,pst,15.15
2023-02-03T04:57:00,pst,15.15
2023-02-03T04:58:00,pst,15.14
2023-02-03T04:59:00,pst,15.15
2023-02-03T05:00:00,pst,15.14
2023-02-03T05:01:00,pst,14.35
2023-02-03T05:02:00,pst,14.18
2023-02-03T05:03:00,pst,14.22
2023-02-03T05:04:00,pst,14.08
2023-02-03T05:05:00,pst,14.18
2023-02-03T05:06:00,pst,14.24
2023-02-03T05:07:00,pst,14.72
2023-02-03T05:08:00,pst,14.76
2023-02-03T05:09:00,pst,14.76
2023-02-03T05:10:00,pst,14.83
2023-02-03T05:11:00,pst,15.06
2023-02-03T05:12:00,pst,15.27
2023-02-03T05:13:00,pst,14.54
2023-02-03T05:14:00,pst,14.50
2023-02-03T05:15:00,pst,14.54
2023-02-03T05:16:00,pst,14.65
2023-02-03T05:17:00,pst,14.45
2023-02-03T05:18:00,pst,14.24
2023-02-03T05:19:00,pst,14.85
2023-02-03T05:20:00,pst,14.72
2023-02-03T05:21:00,pst,15.11
2023-02-03T05:22:00,pst,15.16
2023-02-03T05:23:00,pst,15.22
2023-02-03T05:24:00,pst,15.38
2023-02-03T05:25:00,pst,14.70
2023-02-03T05:26:00,pst,14.69
2023-02-03T05:27:00,pst,14.40
2023-02-03T05:28:00,pst,14.20
2023-02-03T05:29:00,pst,14.09
2023-02-03T05:30:00,pst,14.10
2023-02-03T05:31:00,pst,14.86
2023-02-03T05:32:00,pst,14.92
2023-02-03T05:33:00,pst,14.90
2023-02-03T05:34:00,pst,14.86
2023-02-03T05:35:00,pst,14.85
2023-02-03T05:36:00,pst,14.83
2023-02-03T05:37:00,pst,14.78
2023-02-03T05:38:00,pst,14.27
2023-02-03T05:39:00,pst,14.13
2023-02-03T05:40:00,pst,14.05
2023-02-03T05:41:00,pst,14.27
2023-02-03T05:42:00,pst,14.27
2023-02-03T05:43:00,pst,14.52
2023-02-03T05:44:00,pst,14.97
2023-02-03T05:45:00,pst,14.99
2023-02-03T05:46:00,pst,14.95
2023-02-03T05:47:00,pst,23.55
2023-02-03T05:48:00,pst,23.31
2023-02-03T05:49:00,pst,22.50
2023-02-03T05:50:00,pst,22.37
2023-02-03T05:51:00,pst,14.01
2023-02-03T05:52:00,pst,13.86
2023-02-03T05:53:00,pst,13.86
2023-02-03T05:54:00,pst,13.98
2023-02-03T05:55:00,pst,13.96
2023-02-03T05:56:00,pst,14.57
2023-02-03T05:57:00,pst,14.64
2023-02-03T05:58:00,pst,14.94
2023-02-03T05:59:00,pst,15.09
2023-02-03T06:00:00,pst,15.07
2023-02-03T06:01:00,pst,15.09
2023-02-03T06:02:00,pst,14.32
2023-02-03T06:03:00,pst,14.31
2023-02-03T06:04:00,pst,14.52
2023-02-03T06:05:00,pst,14.70
2023-02-03T06:06:00,pst,14.78
2023-02-03T06:07:00,pst,14.78
2023-02-03T06:08:00,pst,15.37
2023-02-03T06:09:00,pst,15.27
2023-02-03T06:10:00,pst,15.26
2023-02-03T06:11:00,pst,15.19
2023-02-03T06:12:00,pst,15.04
2023-02-03T06:13:00,pst,15.08
2023-02-03T06:14:00,pst,14.42
2023-02-03T06:15:00,pst,14.68
2023-02-03T06:16:00,pst,14.58
2023-02-03T06:17:00,pst,14.50
2023-02-03T06:18:00,pst,14.53
2023-02-03T06:19:00,pst,14.43
2023-02-03T06:20:00,pst,14.96
2023-02-03T06:21:00,pst,14.52
2023-02-03T06:22:00,pst,14.52
2023-02-03T06:23:00,pst,14.50
2023-02-03T06:24:00,pst,14.45
2023-02-03T06:25:00,pst,14.51
2023-02-03T06:26:00,pst,13.78
2023-02-03T06:27:00,pst,13.77
2023-02-03T06:28:00,pst,13.76
2023-02-03T06:29:00,pst,13.77
2023-02-03T06:30:00,pst,13.84
2023-02-03T06:31:00,pst,14.18
2023-02-03T06:32:00,pst,14.88
2023-02-03T06:33:00,pst,15.18
2023-02-03T06:34:00,pst,15.55
2023-02-03T06:35:00,pst,15.59
2023-02-03T06:36:00,pst,15.32
2023-02-03T06:37:00,pst,15.12
2023-02-03T06:38:00,pst,14.24
2023-02-03T06:39:00,pst,14.30
2023-02-03T06:40:00,pst,14.13
2023-02-03T06:41:00,pst,14.24
2023-02-03T06:42:00,pst,14.29
2023-02-03T06:43:00,pst,14.27
2023-02-03T06:44:00,pst,14.92
2023-02-03T06:45:00,pst,14.85
2023-02-03T06:46:00,pst,14.93
2023-02-03T06:47:00,pst,14.73
2023-02-03T06:48:00,pst,14.69
2023-02-03T06:49:00,pst,14.73
2023-02-03T06:50:00,pst,14.14
2023-02-03T06:51:00,pst,14.28
2023-02-03T06:52:00,pst,14.06
2023-02-03T06:53:00,pst,14.07
2023-02-03T06:54:00,pst,14.09
2023-02-03T06:55:00,pst,14.08
2023-02-03T06:56:00,pst,14.04
2023-02-03T06:57:00,pst,14.86
2023-02-03T06:58:00,pst,14.86
2023-02-03T06:59:00,pst,14.84
2023-02-03T07:00:00,pst,15.23
2023-02-03T07:01:00,pst,9.80
2023-02-03T07:02:00,pst,9.07
2023-02-03T07:03:00,pst,8.87
2023-02-03T07:04:00,pst,8.84
2023-02-03T07:05:00,pst,8.82
2023-02-03T07:06:00,pst,8.83
2023-02-03T07:07:00,pst,8.96
2023-02-03T07:08:00,pst,9.57
2023-02-03T07:09:00,pst,9.80
2023-02-03T07:10:00,pst,10.13
2023-02-03T07:11:00,pst,10.12
2023-02-03T07:12:00,pst,10.22
2023-02-03T07:13:00,pst,10.17
2023-02-03T07:14:00,pst,9.33
2023-02-03T07:15:00,pst,8.94
2023-02-03T07:16:00,pst,9.06
2023-02-03T07:17:00,pst,8.82
2023-02-03T07:18:00,pst,8.92
2023-02-03T07:19:00,pst,8.97
2023-02-03T07:20:00,pst,9.63
2023-02-03T07:21:00,pst,10.23
2023-02-03T07:22:00,pst,10.22
2023-02-03T07:23:00,pst,10.16
2023-02-03T07:24:00,pst,10.02
2023-02-03T07:25:00,pst,10.00
2023-02-03T07:26:00,pst,9.40
2023-02-03T07:27:00,pst,8.60
2023-02-03T07:28:00,pst,8.64
2023-02-03T07:29:00,pst,8.57
2023-02-03T07:30:00,pst,8.43
2023-02-03T07:31:00,pst,8.62
2023-02-03T07:32:00,pst,9.16
2023-02-03T07:33:00,pst,9.30
2023-02-03T07:34:00,pst,9.27
2023-02-03T07:35:00,pst,9.17
2023-02-03T07:36:00,pst,9.11
2023-02-03T07:37:00,pst,9.12
2023-02-03T07:38:00,pst,8.46
2023-02-03T07:39:00,pst,8.42
2023-02-03T07:40:00,pst,19.53
2023-02-03T07:41:00,pst,8.55
2023-02-03T07:42:00,pst,8.56
2023-02-03T07:43:00,pst,9.21
2023-02-03T07:44:00,pst,9.37
2023-02-03T07:45:00,pst,18.85
2023-02-03T07:46:00,pst,18.45
2023-02-03T07:47:00,pst,18.32
2023-02-03T07:48:00,pst,18.36
2023-02-03T07:49:00,pst,9.20
2023-02-03T07:50:00,pst,9.38
2023-02-03T07:51:00,pst,9.30
2023-02-03T07:52:00,pst,8.99
2023-02-03T07:53:00,pst,9.15
2023-02-03T07:54:00,pst,9.75
2023-02-03T07:55:00,pst,9.88
2023-02-03T07:56:00,pst,9.89
2023-02-03T07:57:00,pst,9.93
2023-02-03T07:58:00,pst,10.02
2023-02-03T07:59:00,pst,10.19
2023-02-03T08:00:00,pst,10.42
2023-02-03T08:01:00,pst,10.14
2023-02-03T08:02:00,pst,9.35
2023-02-03T08:03:00,pst,9.40
2023-02-03T08:04:00,pst,9.27
2023-02-03T08:05:00,pst,9.46
2023-02-03T08:06:00,pst,10.12
2023-02-03T08:07:00,pst,10.38
2023-02-03T08:08:00,pst,10.65
2023-02-03T08:09:00,pst,10.46
2023-02-03T08:10:00,pst,10.06
2023-02-03T08:11:00,pst,8.99
2023-02-03T08:12:00,pst,24.52
2023-02-03T08:13:00,pst,13.27
2023-02-03T08:14:00,pst,12.95
2023-02-03T08:15:00,pst,13.06
2023-02-03T08:16:00,pst,13.07
2023-02-03T08:17:00,pst,13.75
2023-02-03T08:18:00,pst,13.80
2023-02-03T08:19:00,pst,13.75
2023-02-03T08:20:00,pst,13.86
2023-02-03T08:21:00,pst,13.96
2023-02-03T08:22:00,pst,14.01
2023-02-03T08:23:00,pst,13.74
2023-02-03T08:24:00,pst,13.04
2023-02-03T08:25:00,pst,13.10
2023-02-03T08:26:00,pst,13.16
2023-02-03T08:27:00,pst,13.14
2023-02-03T08:28:00,pst,12.95
2023-02-03T08:29:00,pst,13.75
2023-02-03T08:30:00,pst,13.94
2023-02-03T08:31:00,pst,13.85
2023-02-03T08:32:00,pst,13.86
2023-02-03T08:33:00,pst,9.97
2023-02-03T08:34:00,pst,13.69
2023-02-03T08:35:00,pst,12.99
2023-02-03T08:36:00,pst,12.89
2023-02-03T08:37:00,pst,12.89
2023-02-03T08:38:00,pst,9.13
2023-02-03T08:39:00,pst,13.02
2023-02-03T08:40:00,pst,13.60
2023-02-03T08:41:00,pst,13.62
2023-02-03T08:42:00,pst,13.70
2023-02-03T08:43:00,pst,13.61
2023-02-03T08:44:00,pst,13.63
2023-02-03T08:45:00,pst,13.63
2023-02-03T08:46:00,pst,9.32
2023-02-03T08:47:00,pst,13.54
2023-02-03T08:48:00,pst,13.78
2023-02-03T08:49:00,pst,13.85
2023-02-03T08:50:00,pst,13.76
2023-02-03T08:51:00,pst,14.20
2023-02-03T08:52:00,pst,14.20
2023-02-03T08:53:00,pst,9.98
2023-02-03T08:54:00,pst,14.00
2023-02-03T08:55:00,pst,13.90
2023-02-03T08:56:00,pst,9.84
2023-02-03T08:57:00,pst,13.00
2023-02-03T08:58:00,pst,20.30
2023-02-03T08:59:00,pst,8.76
2023-02-03T09:00:00,pst,8.71
2023-02-03T09:01:00,pst,8.77
2023-02-03T09:02:00,pst,9.44
2023-02-03T09:03:00,pst,9.37
2023-02-03T09:04:00,pst,9.52
2023-02-03T09:05:00,pst,9.46
2023-02-03T09:06:00,pst,9.58
2023-02-03T09:07:00,pst,10.04
2023-02-03T09:08:00,pst,9.16
2023-02-03T09:09:00,pst,17.83
2023-02-03T09:10:00,pst,17.53
2023-02-03T09:11:00,pst,17.42
2023-02-03T09:12:00,pst,9.15
2023-02-03T09:13:00,pst,9.15
2023-02-03T09:14:00,pst,9.87
2023-02-03T09:15:00,pst,9.88
2023-02-03T09:16:00,pst,9.91
2023-02-03T09:17:00,pst,9.92
2023-02-03T09:18:00,pst,9.68
2023-02-03T09:19:00,pst,9.73
2023-02-03T09:20:00,pst,9.32
2023-02-03T09:21:00,pst,8.94
2023-02-03T09:22:00,pst,8.83
2023-02-03T09:23:00,pst,8.65
2023-02-03T09:24:00,pst,8.70
2023-02-03T09:25:00,pst,8.77
2023-02-03T09:26:00,pst,9.38
2023-02-03T09:27:00,pst,9.43
2023-02-03T09:28:00,pst,9.87
2023-02-03T09:29:00,pst,9.98
2023-02-03T09:30:00,pst,10.09
2023-02-03T09:31:00,pst,9.92
2023-02-03T09:32:00,pst,9.21
2023-02-03T09:33:00,pst,9.00
2023-02-03T09:34:00,pst,8.91
2023-02-03T09:35:00,pst,9.00
2023-02-03T09:36:00,pst,9.15
2023-02-03T09:37:00,pst,10.27
2023-02-03T09:38:00,pst,9.77
2023-02-03T09:39:00,pst,9.79
2023-02-03T09:40:00,pst,10.31
2023-02-03T09:41:00,pst,10.25
2023-02-03T09:42:00,pst,10.01
2023-02-03T09:43:00,pst,9.38
2023-02-03T09:44:00,pst,9.40
2023-02-03T09:45:00,pst,8.92
2023-02-03T09:46:00,pst,8.93
2023-02-03T09:47:00,pst,11.06
2023-02-03T09:48:00,pst,9.38
2023-02-03T09:49:00,pst,9.29
2023-02-03T09:50:00,pst,9.39
2023-02-03T09:51:00,pst,9.55
2023-02-03T09:52:00,pst,9.46
2023-02-03T09:53:00,pst,9.43
2023-02-03T09:54:00,pst,8.62
2023-02-03T09:55:00,pst,8.73
2023-02-03T09:56:00,pst,9.92
2023-02-03T09:57:00,pst,8.75
2023-02-03T09:58:00,pst,8.66
2023-02-03T09:59:00,pst,9.40
2023-02-03T10:00:00,pst,9.42
2023-02-03T10:01:00,pst,9.71
2023-02-03T10:02:00,pst,9.58
2023-02-03T10:03:00,pst,11.43
2023-02-03T10:04:00,pst,11.44
2023-02-03T10:05:00,pst,10.75
2023-02-03T10:06:00,pst,10.79
2023-02-03T10:07:00,pst,10.58
2023-02-03T10:08:00,pst,10.52
2023-02-03T10:09:00,pst,8.90
2023-02-03T10:10:00,pst,9.52
2023-02-03T10:11:00,pst,11.52
2023-02-03T10:12:00,pst,9.70
2023-02-03T10:13:00,pst,9.64
2023-02-03T10:14:00,pst,9.86
2023-02-03T10:15:00,pst,9.78
2023-02-03T10:16:00,pst,9.17
2023-02-03T10:17:00,pst,9.43
2023-02-03T10:18:00,pst,11.22
2023-02-03T10:19:00,pst,11.20
2023-02-03T10:20:00,pst,11.19
2023-02-03T10:21:00,pst,11.19
2023-02-03T10:22:00,pst,9.76
2023-02-03T10:23:00,pst,9.74
2023-02-03T10:24:00,pst,9.58
2023-02-03T10:25:00,pst,9.56
2023-02-03T10:26:00,pst,21.50
2023-02-03T10:27:00,pst,9.92
2023-02-03T10:28:00,pst,9.19
2023-02-03T10:29:00,pst,9.21
2023-02-03T10:30:00,pst,9.12
2023-02-03T10:31:00,pst,9.19
2023-02-03T10:32:00,pst,8.87
2023-02-03T10:33:00,pst,9.54
2023-02-03T10:34:00,pst,9.39
2023-02-03T10:35:00,pst,9.38
2023-02-03T10:36:00,pst,9.21
2023-02-03T10:37:00,pst,9.09
2023-02-03T10:38:00,pst,11.55
2023-02-03T10:39:00,pst,8.76
2023-02-03T10:40:00,pst,8.73
2023-02-03T10:41:00,pst,8.90
2023-02-03T10:42:00,pst,9.07
2023-02-03T10:43:00,pst,9.20
2023-02-03T10:44:00,pst,9.22
2023-02-03T10:45:00,pst,9.51
2023-02-03T10:46:00,pst,18.05
2023-02-03T10:47:00,pst,19.53
2023-02-03T10:48:00,pst,17.80
2023-02-03T10:49:00,pst,19.77
2023-02-03T10:50:00,pst,9.28
2023-02-03T10:51:00,pst,9.39
2023-02-03T10:52:00,pst,9.86
2023-02-03T10:53:00,pst,9.44
2023-02-03T10:54:00,pst,10.53
2023-02-03T10:55:00,pst,10.05
2023-02-03T10:56:00,pst,9.28
2023-02-03T10:57:00,pst,9.55
2023-02-03T10:58:00,pst,11.26
2023-02-03T10:59:00,pst,11.13
2023-02-03T11:00:00,pst,11.14
2023-02-03T11:01:00,pst,10.53
2023-02-03T11:02:00,pst,10.72
2023-02-03T11:03:00,pst,22.64
2023-02-03T11:04:00,pst,10.78
2023-02-03T11:05:00,pst,10.70
2023-02-03T11:06:00,pst,11.49
2023-02-03T11:07:00,pst,11.36
2023-02-03T11:08:00,pst,11.50
2023-02-03T11:09:00,pst,11.92
2023-02-03T11:10:00,pst,13.04
2023-02-03T11:11:00,pst,11.80
2023-02-03T11:12:00,pst,12.11
2023-02-03T11:13:00,pst,11.14
2023-02-03T11:14:00,pst,11.36
2023-02-03T11:15:00,pst,10.96
2023-02-03T11:16:00,pst,10.95
2023-02-03T11:17:00,pst,23.16
2023-02-03T11:18:00,pst,11.40
2023-02-03T11:19:00,pst,11.75
2023-02-03T11:20:00,pst,11.24
2023-02-03T11:21:00,pst,9.62
2023-02-03T11:22:00,pst,9.68
2023-02-03T11:23:00,pst,9.66
2023-02-03T11:24:00,pst,10.83
2023-02-03T11:25:00,pst,10.72
2023-02-03T11:26:00,pst,10.69
2023-02-03T11:27:00,pst,10.96
2023-02-03T11:28:00,pst,10.97
2023-02-03T11:29:00,pst,9.81
2023-02-03T11:30:00,pst,9.84
2023-02-03T11:31:00,pst,9.84
2023-02-03T11:32:00,pst,11.77
2023-02-03T11:33:00,pst,11.52
2023-02-03T11:34:00,pst,12.02
2023-02-03T11:35:00,pst,11.94
2023-02-03T11:36:00,pst,11.16
2023-02-03T11:37:00,pst,9.67
2023-02-03T11:38:00,pst,9.65
2023-02-03T11:39:00,pst,9.68
2023-02-03T11:40:00,pst,12.25
2023-02-03T11:41:00,pst,12.27
2023-02-03T11:42:00,pst,11.93
2023-02-03T11:43:00,pst,11.91
2023-02-03T11:44:00,pst,11.94
2023-02-03T11:45:00,pst,10.00
2023-02-03T11:46:00,pst,9.73
2023-02-03T11:47:00,pst,8.98
2023-02-03T11:48:00,pst,10.92
2023-02-03T11:49:00,pst,10.89
2023-02-03T11:50:00,pst,10.92
2023-02-03T11:51:00,pst,11.62
2023-02-03T11:52:00,pst,11.62
2023-02-03T11:53:00,pst,9.56
2023-02-03T11:54:00,pst,9.72
2023-02-03T11:55:00,pst,9.77
2023-02-03T11:56:00,pst,11.56
2023-02-03T11:57:00,pst,10.76
2023-02-03T11:58:00,pst,10.99
2023-02-03T11:59:00,pst,11.11
2023-02-03T12:00:00,pst,11.26
2023-02-03T12:01:00,pst,12.32
2023-02-03T12:02:00,pst,10.28
2023-02-03T12:03:00,pst,10.25
2023-02-03T12:04:00,pst,10.24
2023-02-03T12:05:00,pst,10.05
2023-02-03T12:06:00,pst,10.39
2023-02-03T12:07:00,pst,11.44
2023-02-03T12:08:00,pst,9.29
2023-02-03T12:09:00,pst,17.72
2023-02-03T12:10:00,pst,17.60
2023-02-03T12:11:00,pst,17.57
2023-02-03T12:12:00,pst,9.17
2023-02-03T12:13:00,pst,9.87
2023-02-03T12:14:00,pst,9.94
2023-02-03T12:15:00,pst,9.72
2023-02-03T12:16:00,pst,10.11
2023-02-03T12:17:00,pst,9.74
2023-02-03T12:18:00,pst,9.46
2023-02-03T12:19:00,pst,8.79
2023-02-03T12:20:00,pst,8.70
2023-02-03T12:21:00,pst,8.67
2023-02-03T12:22:00,pst,8.38
2023-02-03T12:23:00,pst,8.39
2023-02-03T12:24:00,pst,9.15
2023-02-03T12:25:00,pst,9.05
2023-02-03T12:26:00,pst,9.12
2023-02-03T12:27:00,pst,9.54
2023-02-03T12:28:00,pst,9.45
2023-02-03T12:29:00,pst,9.44
2023-02-03T12:30:00,pst,8.95
2023-02-03T12:31:00,pst,8.94
2023-02-03T12:32:00,pst,8.93
2023-02-03T12:33:00,pst,8.88
2023-02-03T12:34:00,pst,8.93
2023-02-03T12:35:00,pst,9.63
2023-02-03T12:36:00,pst,9.42
2023-02-03T12:37:00,pst,9.61
2023-02-03T12:38:00,pst,9.59
2023-02-03T12:39:00,pst,20.75
2023-02-03T12:40:00,pst,9.97
2023-02-03T12:41:00,pst,10.85
2023-02-03T12:42:00,pst,9.06
2023-02-03T12:43:00,pst,10.67
2023-02-03T12:44:00,pst,8.71
2023-02-03T12:45:00,pst,8.52
2023-02-03T12:46:00,pst,9.10
2023-02-03T12:47:00,pst,9.13
2023-02-03T12:48:00,pst,9.08
2023-02-03T12:49:00,pst,9.05
2023-02-03T12:50:00,pst,8.99
2023-02-03T12:51:00,pst,9.25
2023-02-03T12:52:00,pst,8.69
2023-02-03T12:53:00,pst,8.70
2023-02-03T12:54:00,pst,9.01
2023-02-03T12:55:00,pst,9.02
2023-02-03T12:56:00,pst,9.30
2023-02-03T12:57:00,pst,9.04
2023-02-03T12:58:00,pst,9.66
2023-02-03T12:59:00,pst,21.86
2023-02-03T13:00:00,pst,9.71
2023-02-03T13:01:00,pst,9.32
2023-02-03T13:02:00,pst,9.32
2023-02-03T13:03:00,pst,9.70
2023-02-03T13:04:00,pst,9.00
2023-02-03T13:05:00,pst,8.97
2023-02-03T13:06:00,pst,8.98
2023-02-03T13:07:00,pst,9.04
2023-02-03T13:08:00,pst,9.13
2023-02-03T13:09:00,pst,9.92
2023-02-03T13:10:00,pst,9.80
2023-02-03T13:11:00,pst,9.78
2023-02-03T13:12:00,pst,9.76
2023-02-03T13:13:00,pst,9.35
2023-02-03T13:14:00,pst,9.35
2023-02-03T13:15:00,pst,8.67
2023-02-03T13:16:00,pst,8.73
2023-02-03T13:17:00,pst,8.51
2023-02-03T13:18:00,pst,8.47
2023-02-03T13:19:00,pst,8.47
2023-02-03T13:20:00,pst,9.36
2023-02-03T13:21:00,pst,9.43
2023-02-03T13:22:00,pst,9.35
2023-02-03T13:23:00,pst,9.44
2023-02-03T13:24:00,pst,9.41
2023-02-03T13:25:00,pst,9.44